TimeCDT,TemperatureF,Dew PointF,Humidity,Sea Level PressureIn,VisibilityMPH,Wind Direction,Wind SpeedMPH,Gust SpeedMPH,PrecipitationIn,Events,Conditions,WindDirDegrees,DateUTC
12:15 AM,71.6,71.6,100,29.94,7.0,Calm,Calm,-,N/A,,Overcast,0,2013-08-03 05:15:00
12:35 AM,71.6,71.6,100,29.94,5.0,Calm,Calm,-,N/A,,Overcast,0,2013-08-03 05:35:00
12:55 AM,69.8,69.8,100,29.95,4.0,Calm,Calm,-,N/A,,Overcast,0,2013-08-03 05:55:00
1:15 AM,69.8,69.8,100,29.94,0.5,Calm,Calm,-,N/A,Fog,Fog,0,2013-08-03 06:15:00
1:35 AM,69.8,69.8,100,29.94,4.0,Calm,Calm,-,N/A,,Mostly Cloudy,0,2013-08-03 06:35:00
1:55 AM,69.8,69.8,100,29.94,3.0,Calm,Calm,-,N/A,,Mostly Cloudy,0,2013-08-03 06:55:00
2:15 AM,68.0,68.0,100,29.93,1.5,Calm,Calm,-,N/A,,Overcast,0,2013-08-03 07:15:00
2:35 AM,68.0,68.0,100,29.94,0.8,Calm,Calm,-,N/A,,Overcast,0,2013-08-03 07:35:00
2:55 AM,68.0,68.0,100,29.93,3.0,Calm,Calm,-,N/A,,Overcast,0,2013-08-03 07:55:00
3:15 AM,68.0,68.0,100,29.94,3.0,Calm,Calm,-,N/A,,Overcast,0,2013-08-03 08:15:00
3:35 AM,68.0,68.0,100,29.94,2.5,Calm,Calm,-,N/A,,Overcast,0,2013-08-03 08:35:00
3:55 AM,68.0,68.0,100,29.93,1.2,SE,3.5,-,N/A,,Overcast,140,2013-08-03 08:55:00
4:15 AM,68.0,68.0,100,29.93,2.0,NNW,3.5,-,N/A,,Overcast,340,2013-08-03 09:15:00
4:35 AM,68.0,68.0,100,29.94,7.0,North,3.5,-,N/A,,Overcast,350,2013-08-03 09:35:00
4:55 AM,68.0,68.0,100,29.95,6.0,NNE,6.9,-,N/A,,Overcast,30,2013-08-03 09:55:00
5:15 AM,69.8,69.8,100,29.96,6.0,NNW,3.5,-,N/A,,Overcast,330,2013-08-03 10:15:00
5:35 AM,69.8,69.8,100,29.97,5.0,Calm,Calm,-,N/A,,Overcast,0,2013-08-03 10:35:00
5:55 AM,69.8,69.8,100,29.96,4.0,Calm,Calm,-,N/A,,Overcast,0,2013-08-03 10:55:00
6:15 AM,69.8,69.8,100,29.97,4.0,Calm,Calm,-,N/A,,Overcast,0,2013-08-03 11:15:00
6:35 AM,71.6,71.6,100,29.98,5.0,NW,3.5,-,N/A,,Overcast,320,2013-08-03 11:35:00
6:55 AM,71.6,71.6,100,29.98,5.0,Calm,Calm,-,N/A,,Overcast,0,2013-08-03 11:55:00
7:15 AM,71.6,71.6,100,29.99,5.0,Calm,Calm,-,N/A,,Overcast,0,2013-08-03 12:15:00
7:35 AM,71.6,71.6,100,30.01,5.0,Calm,Calm,-,N/A,,Overcast,0,2013-08-03 12:35:00
7:55 AM,71.6,71.6,100,30.02,5.0,Calm,Calm,-,N/A,,Overcast,0,2013-08-03 12:55:00
8:15 AM,71.6,71.6,100,30.02,6.0,NNE,3.5,-,N/A,,Overcast,30,2013-08-03 13:15:00
8:35 AM,71.6,69.8,94,30.03,8.0,NE,3.5,-,N/A,,Overcast,50,2013-08-03 13:35:00
8:55 AM,71.6,69.8,94,30.04,10.0,Calm,Calm,-,N/A,,Overcast,0,2013-08-03 13:55:00
9:15 AM,73.4,69.8,88,30.05,10.0,Calm,Calm,-,N/A,,Overcast,0,2013-08-03 14:15:00
9:35 AM,73.4,69.8,88,30.05,10.0,Calm,Calm,-,N/A,,Overcast,0,2013-08-03 14:35:00
9:55 AM,73.4,69.8,88,30.06,10.0,Calm,Calm,-,N/A,,Overcast,0,2013-08-03 14:55:00
10:15 AM,73.4,68.0,83,30.06,10.0,Calm,Calm,-,N/A,,Overcast,0,2013-08-03 15:15:00
10:35 AM,73.4,71.6,94,30.06,9.0,Calm,Calm,-,N/A,,Overcast,0,2013-08-03 15:35:00
10:55 AM,73.4,69.8,88,30.07,10.0,WNW,3.5,-,N/A,,Overcast,300,2013-08-03 15:55:00
11:15 AM,73.4,69.8,88,30.07,9.0,Calm,Calm,-,N/A,,Overcast,0,2013-08-03 16:15:00
11:35 AM,75.2,71.6,89,30.07,9.0,NNW,3.5,-,N/A,,Overcast,330,2013-08-03 16:35:00
11:55 AM,75.2,69.8,83,30.06,10.0,Calm,Calm,-,N/A,,Overcast,0,2013-08-03 16:55:00
12:15 PM,77.0,71.6,83,30.06,10.0,West,3.5,-,N/A,,Overcast,280,2013-08-03 17:15:00
12:35 PM,77.0,71.6,83,30.05,10.0,WNW,5.8,-,N/A,,Mostly Cloudy,300,2013-08-03 17:35:00
12:55 PM,78.8,71.6,78,30.05,10.0,NNW,3.5,-,N/A,,Mostly Cloudy,340,2013-08-03 17:55:00
1:15 PM,80.6,71.6,74,30.05,10.0,NNE,5.8,-,N/A,,Mostly Cloudy,20,2013-08-03 18:15:00
1:35 PM,80.6,71.6,74,30.05,10.0,North,3.5,-,N/A,,Mostly Cloudy,350,2013-08-03 18:35:00
2:35 PM,82.4,69.8,66,30.04,10.0,North,4.6,-,N/A,,Partly Cloudy,10,2013-08-03 19:35:00
2:55 PM,82.4,69.8,66,30.04,10.0,North,5.8,-,N/A,,Partly Cloudy,350,2013-08-03 19:55:00
3:15 PM,84.2,71.6,66,30.04,10.0,North,5.8,-,N/A,,Partly Cloudy,360,2013-08-03 20:15:00
3:35 PM,84.2,69.8,62,30.03,10.0,NE,4.6,-,N/A,,Scattered Clouds,50,2013-08-03 20:35:00
3:55 PM,84.2,69.8,62,30.03,10.0,NNE,5.8,-,N/A,,Partly Cloudy,20,2013-08-03 20:55:00
4:15 PM,84.2,69.8,62,30.04,10.0,North,3.5,-,N/A,,Scattered Clouds,10,2013-08-03 21:15:00
4:35 PM,84.2,69.8,62,30.04,10.0,NNW,6.9,-,N/A,,Scattered Clouds,340,2013-08-03 21:35:00
4:55 PM,84.2,68.0,58,30.04,10.0,North,4.6,-,N/A,,Clear,360,2013-08-03 21:55:00
5:15 PM,84.2,68.0,58,30.04,10.0,North,8.1,-,N/A,,Partly Cloudy,10,2013-08-03 22:15:00
5:35 PM,82.4,69.8,66,30.04,10.0,NNE,5.8,-,N/A,,Partly Cloudy,20,2013-08-03 22:35:00
5:55 PM,82.4,69.8,66,30.04,10.0,North,5.8,-,N/A,,Clear,350,2013-08-03 22:55:00
6:15 PM,82.4,68.0,62,30.04,10.0,North,4.6,-,N/A,,Clear,360,2013-08-03 23:15:00
6:35 PM,82.4,68.0,62,30.04,10.0,Calm,Calm,-,N/A,,Clear,0,2013-08-03 23:35:00
6:55 PM,82.4,68.0,62,30.04,10.0,North,3.5,-,N/A,,Clear,10,2013-08-03 23:55:00
7:15 PM,80.6,68.0,65,30.04,10.0,North,4.6,-,N/A,,Clear,10,2013-08-04 00:15:00
7:35 PM,80.6,68.0,65,30.05,10.0,NNW,3.5,-,N/A,,Clear,340,2013-08-04 00:35:00
7:55 PM,77.0,69.8,78,30.05,10.0,Calm,Calm,-,N/A,,Clear,0,2013-08-04 00:55:00
8:35 PM,75.2,68.0,78,30.06,10.0,Calm,Calm,-,N/A,,Clear,0,2013-08-04 01:35:00
8:55 PM,73.4,68.0,83,30.07,10.0,Calm,Calm,-,N/A,,Clear,0,2013-08-04 01:55:00
9:15 PM,73.4,68.0,83,30.08,10.0,NNW,3.5,-,N/A,,Clear,330,2013-08-04 02:15:00
9:35 PM,73.4,66.2,78,30.09,10.0,Calm,Calm,-,N/A,,Clear,0,2013-08-04 02:35:00
9:55 PM,73.4,64.4,73,30.10,10.0,Calm,Calm,-,N/A,,Clear,0,2013-08-04 02:55:00
10:15 PM,71.6,66.2,83,30.10,10.0,Calm,Calm,-,N/A,,Clear,0,2013-08-04 03:15:00
10:35 PM,71.6,64.4,78,30.11,10.0,Calm,Calm,-,N/A,,Clear,0,2013-08-04 03:35:00
10:55 PM,69.8,64.4,83,30.11,10.0,Calm,Calm,-,N/A,,Scattered Clouds,0,2013-08-04 03:55:00
11:15 PM,68.0,64.4,88,30.11,10.0,Calm,Calm,-,N/A,,Partly Cloudy,0,2013-08-04 04:15:00
11:35 PM,68.0,64.4,88,30.11,10.0,Calm,Calm,-,N/A,,Clear,0,2013-08-04 04:35:00
11:55 PM,66.2,64.4,94,30.12,10.0,Calm,Calm,-,N/A,,Clear,0,2013-08-04 04:55:00